| time (UTC) | temp C | wind direction | speed KPH | gust KPH | rain 1hr cm | rain 24hr cm | rain mn cm | humidity % | barometer mb |
| 20260505064627 | 14 | 103 | 11.3 | 17.7 | 0.00 | 0.00 | 0.00 | 59 | 1009.4 |
| 20260505063611 | 14 | 170 | 4.8 | 14.5 | 0.00 | 0.00 | 0.00 | 59 | 1009.4 |
| 20260505062650 | 14 | 190 | 8.0 | 17.7 | 0.00 | 0.00 | 0.00 | 59 | 1009.2 |
| 20260505061628 | 15 | 217 | 9.7 | 19.3 | 0.00 | 0.00 | 0.00 | 57 | 1009.1 |
| 20260505060618 | 15 | 115 | 9.7 | 24.1 | 0.00 | 0.00 | 0.00 | 55 | 1008.9 |
| 20260505055648 | 15 | 166 | 8.0 | 17.7 | 0.00 | 0.00 | 0.00 | 53 | 1008.7 |
| 20260505054612 | 16 | 190 | 11.3 | 17.7 | 0.00 | 0.00 | 0.00 | 50 | 1008.4 |
| 20260505053611 | 16 | 177 | 6.4 | 14.5 | 0.00 | 0.00 | 0.00 | 46 | 1008.2 |
| 20260505052650 | 16 | 155 | 4.8 | 14.5 | 0.00 | 0.00 | 0.00 | 45 | 1008.0 |
| 20260505051613 | 16 | 141 | 6.4 | 16.1 | 0.00 | 0.00 | 0.00 | 44 | 1007.9 |
| 20260505050614 | 16 | 142 | 8.0 | 12.9 | 0.00 | 0.00 | 0.00 | 44 | 1008.0 |
| 20260505041645 | 17 | 140 | 9.7 | 16.1 | 0.00 | 0.00 | 0.00 | 41 | 1007.5 |
| 20260505040628 | 17 | 156 | 6.4 | 16.1 | 0.00 | 0.00 | 0.00 | 41 | 1007.4 |
| 20260505035619 | 17 | 182 | 6.4 | 12.9 | 0.00 | 0.00 | 0.00 | 41 | 1007.3 |
| 20260505034616 | 17 | 190 | 6.4 | 12.9 | 0.00 | 0.00 | 0.00 | 39 | 1007.1 |
| 20260505033616 | 18 | 142 | 9.7 | 17.7 | 0.00 | 0.00 | 0.00 | 37 | 1007.0 |
| 20260505032620 | 18 | 175 | 3.2 | 6.4 | 0.00 | 0.00 | 0.00 | 35 | 1006.7 |
| 20260505031620 | 18 | 159 | 0.0 | 4.8 | 0.00 | 0.00 | 0.00 | 35 | 1006.6 |
| 20260505030620 | 18 | 161 | 1.6 | 8.0 | 0.00 | 0.00 | 0.00 | 34 | 1006.4 |
| 20260505025616 | 19 | 168 | 0.0 | 8.0 | 0.00 | 0.00 | 0.00 | 34 | 1006.3 |
| 20260505024616 | 19 | 169 | 1.6 | 8.0 | 0.00 | 0.00 | 0.00 | 34 | 1006.1 |
| 20260505023614 | 19 | 171 | 3.2 | 8.0 | 0.00 | 0.00 | 0.00 | 33 | 1005.9 |
| 20260505022618 | 20 | 180 | 3.2 | 8.0 | 0.00 | 0.00 | 0.00 | 33 | 1005.9 |
| 20260505021617 | 20 | 184 | 4.8 | 8.0 | 0.00 | 0.00 | 0.00 | 31 | 1006.0 |
| 20260505020636 | 20 | 157 | 3.2 | 11.3 | 0.00 | 0.00 | 0.00 | 31 | 1005.9 |
| 20260505015625 | 21 | 200 | 3.2 | 11.3 | 0.00 | 0.00 | 0.00 | 30 | 1005.8 |
| 20260505014628 | 21 | 192 | 4.8 | 14.5 | 0.00 | 0.00 | 0.00 | 29 | 1005.7 |
| 20260505013629 | 21 | 148 | 3.2 | 11.3 | 0.00 | 0.00 | 0.00 | 29 | 1005.7 |
| 20260505012628 | 21 | 189 | 4.8 | 16.1 | 0.00 | 0.00 | 0.00 | 28 | 1005.8 |
| 20260505011612 | 22 | 153 | 4.8 | 12.9 | 0.00 | 0.00 | 0.00 | 28 | 1005.9 |
| 20260505010611 | 22 | 251 | 6.4 | 14.5 | 0.00 | 0.00 | 0.00 | 28 | 1006.0 |
| 20260505005622 | 22 | 174 | 3.2 | 16.1 | 0.00 | 0.00 | 0.00 | 29 | 1006.0 |
| 20260505004643 | 22 | 216 | 6.4 | 17.7 | 0.00 | 0.00 | 0.00 | 28 | 1006.1 |
| 20260505003626 | 22 | 223 | 6.4 | 16.1 | 0.00 | 0.00 | 0.00 | 29 | 1006.3 |
| 20260505002626 | 22 | 165 | 6.4 | 12.9 | 0.00 | 0.00 | 0.00 | 29 | 1006.3 |
| 20260505001626 | 21 | 159 | 6.4 | 20.9 | 0.00 | 0.00 | 0.00 | 30 | 1006.4 |
| 20260505000612 | 22 | 228 | 11.3 | 19.3 | 0.00 | 0.00 | 0.00 | 28 | 1006.4 |
| 20260504235624 | 22 | 196 | 9.7 | 19.3 | 0.00 | 0.00 | 0.00 | 29 | 1006.4 |
| 20260504234622 | 22 | 146 | 8.0 | 25.7 | 0.00 | 0.00 | 0.00 | 27 | 1006.4 |
| 20260504233622 | 22 | 188 | 12.9 | 20.9 | 0.00 | 0.00 | 0.00 | 27 | 1006.4 |
| 20260504232624 | 22 | 234 | 11.3 | 22.5 | 0.00 | 0.00 | 0.00 | 26 | 1006.4 |
| 20260504231624 | 22 | 221 | 12.9 | 20.9 | 0.00 | 0.00 | 0.00 | 25 | 1006.5 |
| 20260504230624 | 22 | 215 | 12.9 | 19.3 | 0.00 | 0.00 | 0.00 | 27 | 1006.5 |
| 20260504225618 | 21 | 198 | 14.5 | 25.7 | 0.00 | 0.00 | 0.00 | 28 | 1006.5 |
| 20260504224618 | 22 | 269 | 16.1 | 22.5 | 0.00 | 0.00 | 0.00 | 28 | 1006.7 |
| 20260504223637 | 21 | 261 | 24.1 | 33.8 | 0.00 | 0.00 | 0.00 | 28 | 1006.6 |
| 20260504222620 | 22 | 234 | 17.7 | 33.8 | 0.00 | 0.00 | 0.00 | 28 | 1006.5 |
| 20260504221617 | 22 | 271 | 14.5 | 22.5 | 0.00 | 0.00 | 0.00 | 23 | 1006.5 |
| 20260504220617 | 22 | 236 | 6.4 | 19.3 | 0.00 | 0.00 | 0.00 | 21 | 1006.5 |
| 20260504215649 | 23 | 316 | 14.5 | 20.9 | 0.00 | 0.00 | 0.00 | 21 | 1006.7 |
| 20260504214612 | 22 | 274 | 14.5 | 25.7 | 0.00 | 0.00 | 0.00 | 21 | 1006.8 |
| 20260504213611 | 23 | 291 | 14.5 | 24.1 | 0.00 | 0.00 | 0.00 | 22 | 1006.9 |
| 20260504212610 | 23 | 261 | 3.2 | 14.5 | 0.00 | 0.00 | 0.00 | 24 | 1007.0 |
| 20260504211634 | 22 | 275 | 6.4 | 24.1 | 0.00 | 0.00 | 0.00 | 21 | 1007.3 |
| 20260504210613 | 23 | 279 | 11.3 | 25.7 | 0.00 | 0.00 | 0.00 | 21 | 1007.4 |
| 20260504205626 | 22 | 305 | 12.9 | 22.5 | 0.00 | 0.00 | 0.00 | 22 | 1007.4 |
| 20260504204627 | 22 | 242 | 8.0 | 25.7 | 0.00 | 0.00 | 0.00 | 22 | 1007.6 |
| 20260504203630 | 22 | 308 | 4.8 | 17.7 | 0.00 | 0.00 | 0.00 | 25 | 1007.7 |
| 20260504202610 | 22 | 272 | 11.3 | 25.7 | 0.00 | 0.00 | 0.00 | 24 | 1007.8 |
| 20260504201629 | 22 | 257 | 12.9 | 24.1 | 0.00 | 0.00 | 0.00 | 25 | 1007.8 |
| 20260504200633 | 22 | 275 | 17.7 | 29.0 | 0.00 | 0.00 | 0.00 | 26 | 1007.9 |
| 20260504195621 | 22 | 290 | 12.9 | 17.7 | 0.00 | 0.00 | 0.00 | 27 | 1008.0 |
| 20260504194620 | 22 | 311 | 14.5 | 27.4 | 0.00 | 0.00 | 0.00 | 27 | 1008.1 |
| 20260504193621 | 22 | 274 | 9.7 | 29.0 | 0.00 | 0.00 | 0.00 | 27 | 1008.2 |
| 20260504192624 | 22 | 276 | 12.9 | 32.2 | 0.00 | 0.00 | 0.00 | 27 | 1008.2 |
| 20260504191625 | 22 | 270 | 16.1 | 19.3 | 0.00 | 0.00 | 0.00 | 26 | 1008.4 |
| 20260504190621 | 22 | 322 | 8.0 | 19.3 | 0.00 | 0.00 | 0.00 | 26 | 1008.5 |
| 20260504185617 | 22 | 248 | 6.4 | 12.9 | 0.00 | 0.00 | 0.00 | 28 | 1008.6 |
| 20260504184638 | 21 | 201 | 9.7 | 17.7 | 0.00 | 0.00 | 0.00 | 29 | 1008.6 |
| 20260504183617 | 21 | 316 | 1.6 | 11.3 | 0.00 | 0.00 | 0.00 | 29 | 1008.7 |
| 20260504182620 | 21 | 224 | 6.4 | 14.5 | 0.00 | 0.00 | 0.00 | 27 | 1009.0 |
| 20260504181620 | 22 | 153 | 3.2 | 12.9 | 0.00 | 0.00 | 0.00 | 29 | 1009.1 |
| 20260504180611 | 22 | 202 | 3.2 | 12.9 | 0.00 | 0.00 | 0.00 | 29 | 1009.3 |
| 20260504175620 | 22 | 263 | 1.6 | 12.9 | 0.00 | 0.00 | 0.00 | 29 | 1009.4 |
| 20260504174620 | 21 | 126 | 3.2 | 9.7 | 0.00 | 0.00 | 0.00 | 31 | 1009.5 |
| 20260504173624 | 20 | 155 | 3.2 | 11.3 | 0.00 | 0.00 | 0.00 | 33 | 1009.6 |
| 20260504172625 | 20 | 175 | 1.6 | 14.5 | 0.00 | 0.00 | 0.00 | 30 | 1009.7 |
| 20260504171624 | 20 | 187 | 1.6 | 12.9 | 0.00 | 0.00 | 0.00 | 33 | 1009.7 |
| 20260504170629 | 20 | 198 | 4.8 | 14.5 | 0.00 | 0.00 | 0.00 | 34 | 1009.7 |
| 20260504150641 | 18 | 164 | 4.8 | 16.1 | 0.00 | 0.00 | 0.00 | 39 | 1010.1 |
| 20260504140638 | 17 | 133 | 4.8 | 6.4 | 0.00 | 0.00 | 0.00 | 39 | 1010.2 |
| 20260504130613 | 14 | 105 | 4.8 | 9.7 | 0.00 | 0.00 | 0.00 | 42 | 1010.2 |
| 20260504110613 | 13 | 32 | 4.8 | 6.4 | 0.00 | 0.00 | 0.00 | 38 | 1010.2 |
| 20260504100614 | 13 | 91 | 0.0 | 0.0 | 0.00 | 0.00 | 0.00 | 37 | 1010.0 |
| 20260504081625 | 16 | 53 | 4.8 | 9.7 | 0.00 | 0.00 | 0.00 | 26 | 1009.1 |
| 20260504080610 | 15 | 49 | 4.8 | 8.0 | 0.00 | 0.00 | 0.00 | 28 | 1009.1 |